Location: Unspecified
(43.4680°N, 87.1740°E)
Time: 20:53:48
(UTC+00:00)

IDEFIX/ARIANE 42P - Pass Details

Date: 17 April 2021
Orbit: 785 x 802 km, 98.4° (Epoch: 11 May)

Event Time Altitude Azimuth Distance (km) Brightness Sun altitude
Rises 20:33:20 0° 18° (NNE) 3,294 6.9 -26.8°
Reaches altitude 10° 20:35:44 10° 24° (NNE) 2,363 6.0 -26.5°
Maximum altitude 20:40:47 49° 99° (E) 1,019 3.2 -25.9°
Enters shadow 20:42:14 38° 144° (SE) 1,190 3.3 -25.7°
